When you browse on this site, cookies collect data to enhance your experience and personalize the content and advertising you see.
Visit our Privacy Policy to learn more. By continuing to use the site, you agree to this use of cookies and data.
  • în România
  • Lista ţărilor
  • Pe 7 zile
  • Temperatura apei
  • Hartă satelitară
  • Meteo pe hartă
  • Widget-uri
  • user-avatar
    Intrare

    Meteo pe oră la La Rioja

    Astăzi, 22 Martie, Vineri

    Timp Temperatura Precipitaţii Vânt Presiune Umiditate
    00:00 +18°C° 0 mm 1 m/s 715 mmHg 70%
    01:00 +18°C° 0 mm 1 m/s 715 mmHg 70%
    02:00 +17°C° 0 mm 2 m/s 714 mmHg 71%
    03:00 +17°C° 0 mm 2 m/s 714 mmHg 73%
    04:00 +16°C° 0 mm 2 m/s 714 mmHg 75%
    05:00 +16°C° 0 mm 2 m/s 714 mmHg 77%
    06:00 +17°C° 0 mm 2 m/s 715 mmHg 73%
    07:00 +18°C° 0 mm 2 m/s 715 mmHg 69%
    08:00 +19°C° 0 mm 2 m/s 716 mmHg 65%
    09:00 +21°C° 0 mm 2 m/s 716 mmHg 60%
    10:00 +22°C° 0 mm 3 m/s 716 mmHg 55%
    11:00 +25°C° 0 mm 3 m/s 716 mmHg 49%
    12:00 +26°C° 0 mm 3 m/s 716 mmHg 46%
    13:00 +27°C° 0 mm 3 m/s 715 mmHg 43%
    14:00 +29°C° 0 mm 3 m/s 715 mmHg 40%
    15:00 +29°C° 0 mm 3 m/s 715 mmHg 40%
    16:00 +29°C° 0 mm 2 m/s 714 mmHg 39%
    17:00 +29°C° 0 mm 2 m/s 714 mmHg 39%
    18:00 +27°C° 0 mm 2 m/s 714 mmHg 44%
    19:00 +25°C° 0 mm 1 m/s 715 mmHg 50%
    20:00 +23°C° 0 mm 1 m/s 715 mmHg 55%
    21:00 +23°C° 0 mm 1 m/s 715 mmHg 57%
    22:00 +23°C° 0 mm 1 m/s 716 mmHg 58%
    23:00 +22°C° 0 mm 1 m/s 716 mmHg 59%

    Mâine, 23 Martie, Sâmbătă

    Timp Temperatura Precipitaţii Vânt Presiune Umiditate
    00:00 +22°C° 0 mm 1 m/s 716 mmHg 61%
    01:00 +21°C° 0 mm 1 m/s 716 mmHg 64%
    02:00 +21°C° 0 mm 1 m/s 715 mmHg 66%
    03:00 +21°C° 0 mm 1 m/s 715 mmHg 69%
    04:00 +20°C° 0 mm 1 m/s 715 mmHg 72%
    05:00 +19°C° 0 mm 1 m/s 714 mmHg 75%
    06:00 +21°C° 0 mm 1 m/s 714 mmHg 70%
    07:00 +22°C° 0 mm 1 m/s 715 mmHg 65%
    08:00 +24°C° 0 mm 1 m/s 715 mmHg 60%
    09:00 +25°C° 0 mm 1 m/s 715 mmHg 55%
    10:00 +27°C° 0 mm 2 m/s 715 mmHg 50%
    11:00 +29°C° 0 mm 2 m/s 715 mmHg 45%
    12:00 +30°C° 0 mm 2 m/s 714 mmHg 43%
    13:00 +31°C° 0 mm 3 m/s 713 mmHg 41%
    14:00 +33°C° 0 mm 3 m/s 713 mmHg 39%
    15:00 +33°C° 0 mm 3 m/s 712 mmHg 38%
    16:00 +33°C° 0 mm 3 m/s 712 mmHg 38%
    17:00 +32°C° 0 mm 2 m/s 712 mmHg 38%
    18:00 +31°C° 0 mm 3 m/s 712 mmHg 42%
    19:00 +29°C° 0 mm 3 m/s 713 mmHg 46%
    20:00 +28°C° 0 mm 3 m/s 714 mmHg 49%
    21:00 +27°C° 0 mm 3 m/s 714 mmHg 53%
    22:00 +26°C° 0 mm 2 m/s 715 mmHg 56%
    23:00 +26°C° 0 mm 2 m/s 716 mmHg 59%

    Poimâine, 24 Martie, Duminică

    Timp Temperatura Precipitaţii Vânt Presiune Umiditate
    00:00 +25°C° 0 mm 2 m/s 716 mmHg 59%
    01:00 +25°C° 0 mm 3 m/s 716 mmHg 60%
    02:00 +25°C° 0 mm 3 m/s 716 mmHg 60%
    03:00 +24°C° 0.2 mm 3 m/s 716 mmHg 61%
    04:00 +24°C° 0.2 mm 3 m/s 716 mmHg 62%
    05:00 +22°C° 0.2 mm 3 m/s 716 mmHg 63%
    06:00 +24°C° 0.1 mm 3 m/s 717 mmHg 60%
    07:00 +25°C° 0.1 mm 3 m/s 718 mmHg 58%
    08:00 +25°C° 0.1 mm 3 m/s 718 mmHg 55%
    09:00 +27°C° 0.2 mm 3 m/s 718 mmHg 52%
    10:00 +28°C° 0.2 mm 3 m/s 719 mmHg 49%
    11:00 +30°C° 0.2 mm 4 m/s 719 mmHg 46%
    12:00 +30°C° 0.3 mm 4 m/s 718 mmHg 46%
    13:00 +30°C° 0.3 mm 4 m/s 717 mmHg 45%
    14:00 +32°C° 0.3 mm 4 m/s 717 mmHg 44%
    15:00 +32°C° 0.2 mm 4 m/s 716 mmHg 45%
    16:00 +30°C° 0.2 mm 4 m/s 716 mmHg 47%
    17:00 +30°C° 0.2 mm 4 m/s 715 mmHg 48%
    18:00 +29°C° 0.1 mm 3 m/s 715 mmHg 52%
    19:00 +27°C° 0.1 mm 3 m/s 716 mmHg 56%
    20:00 +26°C° 0.1 mm 2 m/s 716 mmHg 60%
    21:00 +25°C° 0.1 mm 2 m/s 717 mmHg 62%
    22:00 +25°C° 0.1 mm 2 m/s 717 mmHg 64%
    23:00 +24°C° 0.1 mm 2 m/s 718 mmHg 66%

    25 Martie, Luni

    Timp Temperatura Precipitaţii Vânt Presiune Umiditate
    00:00 +23°C° 0 mm 1 m/s 717 mmHg 66%
    01:00 +22°C° 0 mm 1 m/s 717 mmHg 67%
    02:00 +22°C° 0 mm 1 m/s 717 mmHg 68%
    03:00 +21°C° 0 mm 1 m/s 717 mmHg 66%
    04:00 +21°C° 0 mm 1 m/s 717 mmHg 65%
    05:00 +21°C° 0 mm 1 m/s 716 mmHg 63%
    06:00 +21°C° 0 mm 1 m/s 717 mmHg 60%
    07:00 +22°C° 0 mm 1 m/s 717 mmHg 56%
    08:00 +22°C° 0 mm 1 m/s 718 mmHg 52%
    09:00 +23°C° 0 mm 1 m/s 718 mmHg 51%
    10:00 +24°C° 0 mm 1 m/s 717 mmHg 50%
    11:00 +24°C° 0 mm 2 m/s 717 mmHg 48%
    12:00 +26°C° 0 mm 2 m/s 717 mmHg 46%
    13:00 +27°C° 0 mm 3 m/s 716 mmHg 44%
    14:00 +28°C° 0 mm 3 m/s 715 mmHg 42%
    15:00 +28°C° 0 mm 4 m/s 715 mmHg 41%
    16:00 +28°C° 0 mm 4 m/s 715 mmHg 41%
    17:00 +28°C° 0 mm 5 m/s 715 mmHg 40%
    18:00 +26°C° 0 mm 4 m/s 715 mmHg 44%
    19:00 +23°C° 0 mm 4 m/s 716 mmHg 48%
    20:00 +21°C° 0 mm 3 m/s 716 mmHg 52%
    21:00 +20°C° 0 mm 2 m/s 717 mmHg 55%
    22:00 +19°C° 0 mm 2 m/s 717 mmHg 57%
    23:00 +19°C° 0 mm 1 m/s 718 mmHg 59%

    26 Martie, Marţi

    Timp Temperatura Precipitaţii Vânt Presiune Umiditate
    00:00 +19°C° 0 mm 1 m/s 718 mmHg 60%
    01:00 +19°C° 0 mm 1 m/s 718 mmHg 61%
    02:00 +19°C° 0 mm 1 m/s 718 mmHg 62%
    03:00 +17°C° 0 mm 2 m/s 718 mmHg 63%
    04:00 +17°C° 0 mm 2 m/s 718 mmHg 64%
    05:00 +17°C° 0 mm 2 m/s 718 mmHg 65%
    06:00 +18°C° 0 mm 2 m/s 718 mmHg 62%
    07:00 +18°C° 0 mm 2 m/s 719 mmHg 60%
    08:00 +19°C° 0 mm 2 m/s 719 mmHg 57%
    09:00 +20°C° 0 mm 2 m/s 719 mmHg 54%
    10:00 +23°C° 0 mm 2 m/s 720 mmHg 51%
    11:00 +24°C° 0 mm 3 m/s 720 mmHg 48%
    12:00 +25°C° 0 mm 3 m/s 719 mmHg 47%
    13:00 +26°C° 0 mm 4 m/s 719 mmHg 46%
    14:00 +26°C° 0 mm 4 m/s 718 mmHg 45%
    15:00 +26°C° 0 mm 4 m/s 718 mmHg 47%
    16:00 +25°C° 0 mm 5 m/s 718 mmHg 49%
    17:00 +23°C° 0 mm 5 m/s 718 mmHg 51%
    18:00 +22°C° 0 mm 4 m/s 718 mmHg 55%
    19:00 +21°C° 0 mm 4 m/s 719 mmHg 59%
    20:00 +19°C° 0 mm 4 m/s 720 mmHg 62%
    21:00 +19°C° 0 mm 3 m/s 720 mmHg 66%
    22:00 +18°C° 0 mm 2 m/s 720 mmHg 70%
    23:00 +17°C° 0 mm 2 m/s 721 mmHg 74%

    27 Martie, Miercuri

    Timp Temperatura Precipitaţii Vânt Presiune Umiditate
    00:00 +18°C° 0 mm 1 m/s 720 mmHg 76%
    01:00 +16°C° 0 mm 1 m/s 720 mmHg 79%
    02:00 +16°C° 0 mm 1 m/s 720 mmHg 81%
    03:00 +16°C° 0 mm 1 m/s 720 mmHg 81%
    04:00 +16°C° 0 mm 1 m/s 719 mmHg 81%
    05:00 +16°C° 0 mm 1 m/s 719 mmHg 81%
    06:00 +16°C° 0 mm 1 m/s 719 mmHg 78%
    07:00 +18°C° 0 mm 1 m/s 719 mmHg 76%
    08:00 +18°C° 0 mm 2 m/s 720 mmHg 73%
    09:00 +19°C° 0 mm 2 m/s 719 mmHg 68%
    10:00 +20°C° 0 mm 2 m/s 719 mmHg 64%
    11:00 +21°C° 0 mm 3 m/s 719 mmHg 60%
    12:00 +22°C° 0 mm 3 m/s 718 mmHg 55%
    13:00 +25°C° 0 mm 3 m/s 717 mmHg 51%
    14:00 +26°C° 0 mm 3 m/s 716 mmHg 47%
    15:00 +26°C° 0 mm 3 m/s 716 mmHg 46%
    16:00 +27°C° 0 mm 3 m/s 715 mmHg 44%
    17:00 +27°C° 0 mm 3 m/s 715 mmHg 43%
    18:00 +26°C° 0 mm 3 m/s 715 mmHg 48%
    19:00 +24°C° 0 mm 3 m/s 716 mmHg 53%
    20:00 +23°C° 0 mm 2 m/s 716 mmHg 58%
    21:00 +21°C° 0 mm 2 m/s 716 mmHg 61%
    22:00 +21°C° 0 mm 2 m/s 717 mmHg 65%
    23:00 +21°C° 0 mm 1 m/s 717 mmHg 69%
    Arată mai mult